Home   Weather   Dar es Salaam   Past weeks

Flag for Tanzania Past Weather in Dar es Salaam, Tanzania — Yesterday and Last 2 Weeks

Now
88 °F

Partly sunny.


Feels Like: 102 °F
Forecast: 79 / 88 °F
Wind: 12 mph from Northeast

Location: Dar Es Salaam Airport

Current Time: Feb 24, 2017 at 2:07:24 pm

Latest Report: Feb 24, 2017 at 1:00 pm


Visibility: N/A

Pressure: 29.86 "Hg

Humidity: 75%

Dew Point: 79 °F

Location of Dar es SalaamLocation

Past Weather in Dar es Salaam — Graph

°F

Dar es Salaam Temperature Yesterday

Maximum temperature yesterday: 91 °F (at 1:00 pm)
Minimum temperature yesterday: 73 °F (at 10:00 pm)
Average temperature yesterday: 85 °F

High & Low Weather Summary for the Past Weeks

 TemperatureHumidityPressure
High93 °F (Feb 12, 2:00 pm)100% (Feb 16, 4:00 pm)29.98 "Hg (Feb 16, 4:00 pm)
Low73 °F (Feb 17, 6:00 am)56% (Feb 12, 2:00 pm)29.77 "Hg (Feb 9, 5:00 pm)
Average84 °F78%29.87 "Hg
* Reported Feb 9 12:00 pm — Feb 24 12:00 pm, Dar es Salaam, Weather by CustomWeather, © 2017

Note: Actual official high and low records may vary slightly from our data, if they occured in-between our weather recording intervals... More about our weather records

Advertising

Dar es Salaam Weather History for the Previous 24 Hours

Scroll right to see more
 ConditionsComfort  
Time TempWeatherWind HumidityBarometerVisibility
12:00 pm
Fri, Feb 24
88 °FBroken clouds.7 mph75%29.89 "HgN/A
11:00 am84 °FBroken clouds.7 mph79%29.92 "HgN/A
10:00 am81 °FBroken clouds.No wind84%29.92 "HgN/A
9:00 am79 °FPartly sunny.No wind89%29.92 "HgN/A
8:00 am77 °FPartly sunny.3 mph94%29.92 "HgN/A
7:00 am75 °FPartly sunny.No wind94%29.89 "HgN/A
3:00 am73 °FPassing clouds.6 mph100%29.86 "HgN/A
2:00 am73 °FPassing clouds.No wind100%29.86 "HgN/A
1:00 am73 °FPassing clouds.No wind100%29.89 "HgN/A
11:00 pm
Thu, Feb 23
73 °FPartly cloudy.6 mph94%29.89 "HgN/A
10:00 pm73 °FRain. Partly cloudy.9 mph94%29.89 "Hg5 mi
6:00 pm86 °FPartly sunny.10 mph75%29.80 "Hg5 mi
5:00 pm88 °FPartly sunny.13 mph66%29.77 "Hg5 mi
4:00 pm90 °FPartly sunny.10 mph71%29.77 "Hg5 mi
3:00 pm90 °FPartly sunny.15 mph71%29.80 "Hg5 mi
2:00 pm91 °FPartly sunny.17 mph67%29.80 "Hg5 mi
Weather by CustomWeather, © 2017

See weather overviewHow to use our weather pages